Simultaneous Nadir Overpasses (SNOs) Predictions

Prediction of SNOs between GOES-15 and TERRA Satellite Orbit:

Table of predicted SNOs for the next 14.0 days since TLE Epoch: 5/23/2015
Index Date Time (GOES-15) GOES-15 Lat,Lon TERRA Lat,Lon Distance(km) Time Diff (sec)
1 05/23/2015 19:22:19 -0.10,-135.28 -0.61,-132.72 290.71 80
2 05/24/2015 07:43:43 0.09,-135.29 -0.45,-137.92 298.47 80
3 05/26/2015 07:28:52 0.10,-135.25 0.18,-134.96 33.27 80
4 05/28/2015 07:16:41 0.10,-135.21 0.77,-132.00 364.47 80
5 05/28/2015 19:40:36 -0.09,-135.17 0.30,-137.16 225.30 80
6 05/30/2015 19:25:44 -0.10,-135.12 -0.30,-134.20 105.42 80
7 05/31/2015 07:49:48 0.09,-135.13 -0.81,-139.38 483.92 80
8 06/01/2015 19:13:32 -0.10,-135.06 -0.92,-131.23 435.36 80
9 06/02/2015 07:37:36 0.09,-135.07 -0.19,-136.42 154.18 80
10 06/04/2015 07:22:44 0.10,-135.00 0.44,-133.46 174.75 80
11 06/04/2015 19:46:39 -0.09,-134.96 0.68,-138.61 415.75 80




NCC Satellite Simultaneous Nadir Overpasses (SNOs) Prediction Service
